DW0494 Weather Reports


Display with metric or nautical units.
time (UTC)temp
F
wind
direction
speed
MPH
gust
MPH
rain 1hr
in
rain 24hr
in
rain mn
in
humidity
%
barometer
mb
20260504002404 48 51 2.0 3.0 0.00 0.04 0.00 66 1021.7
20260504001905 48 52 2.0 3.0 0.00 0.04 0.00 66 1021.8
20260504001404 48 49 1.0 2.0 0.00 0.04 0.00 67 1021.8
20260504000404 49 68 0.0 1.0 0.00 0.04 0.00 66 1021.7
20260503235404 50 55 1.0 2.0 0.00 0.05 0.00 63 1021.8
20260503234904 50 57 1.0 2.0 0.00 0.05 0.00 64 1021.8
20260503234404 50 57 1.0 2.0 0.00 0.05 0.00 64 1021.7
20260503233905 49 47 1.0 2.0 0.00 0.05 0.00 64 1021.7
20260503233404 49 27 1.0 3.0 0.00 0.05 0.00 65 1021.7
20260503232404 49 17 2.0 3.0 0.00 0.05 0.00 65 1021.8
20260503231904 49 27 2.0 3.0 0.00 0.05 0.00 66 1021.8
20260503231403 49 21 2.0 3.0 0.00 0.05 0.00 66 1021.9
20260503225903 48 39 1.0 2.0 0.00 0.05 0.00 67 1022.0
20260503225403 48 32 0.0 1.0 0.00 0.05 0.00 67 1022.0
20260503224905 49 20 0.0 2.0 0.00 0.05 0.00 66 1021.9
20260503224405 49 20 0.0 2.0 0.00 0.05 0.00 65 1021.8
20260503223904 49 17 1.0 2.0 0.00 0.05 0.00 63 1021.8
20260503223404 49 9 1.0 2.0 0.00 0.05 0.00 62 1021.8
20260503222904 49 34 0.0 1.0 0.00 0.05 0.00 63 1021.7
20260503222405 49 39 0.0 1.0 0.00 0.06 0.00 63 1021.7
20260503221904 49 39 0.0 0.0 0.00 0.06 0.00 63 1021.7
20260503221403 49 39 0.0 1.0 0.00 0.06 0.00 62 1021.7
20260503215904 50 40 0.0 1.0 0.00 0.07 0.00 60 1021.7
20260503215404 51 40 0.0 1.0 0.00 0.07 0.00 61 1021.7
20260503214905 52 30 0.0 2.0 0.00 0.07 0.00 57 1021.6
20260503214404 52 30 1.0 2.0 0.00 0.07 0.00 55 1021.6
20260503213404 53 60 1.0 2.0 0.00 0.07 0.00 54 1021.6
20260503212903 52 46 1.0 2.0 0.00 0.07 0.00 55 1021.5
20260503212404 52 50 1.0 2.0 0.00 0.07 0.00 56 1021.6
20260503211904 52 56 1.0 2.0 0.00 0.07 0.00 56 1021.5
20260503210906 52 60 1.0 2.0 0.00 0.07 0.00 57 1021.5
20260503205405 53 40 1.0 2.0 0.00 0.07 0.07 55 1021.6
20260503204904 52 49 1.0 2.0 0.00 0.07 0.07 55 1021.6
20260503203903 52 77 1.0 2.0 0.00 0.07 0.07 57 1021.6
20260503203403 52 75 1.0 1.0 0.00 0.07 0.07 56 1021.7
20260503202406 52 67 0.0 2.0 0.00 0.07 0.07 58 1021.6
20260503201904 52 89 0.0 2.0 0.00 0.07 0.07 59 1021.5
20260503201404 52 50 0.0 5.0 0.00 0.07 0.07 59 1021.6
20260503200904 53 47 2.0 5.0 0.00 0.07 0.07 54 1021.6
20260503200404 53 46 1.0 3.0 0.00 0.07 0.07 56 1021.5
20260503195904 52 50 2.0 3.0 0.00 0.07 0.07 55 1021.6
20260503195404 52 40 1.0 3.0 0.00 0.07 0.07 57 1021.6
20260503194904 52 51 2.0 3.0 0.00 0.07 0.07 57 1021.5
20260503193404 53 58 1.0 2.0 0.00 0.07 0.07 57 1021.5
20260503191905 53 51 1.0 3.0 0.00 0.07 0.07 56 1021.5
20260503191404 53 50 1.0 3.0 0.00 0.07 0.07 56 1021.5
20260503190404 54 64 0.0 2.0 0.00 0.07 0.07 57 1021.5
20260503185405 54 53 1.0 3.0 0.00 0.07 0.07 55 1021.4
20260503184905 54 49 2.0 3.0 0.00 0.07 0.07 55 1021.4
20260503184403 54 97 0.0 2.0 0.00 0.07 0.07 56 1021.2
20260503183904 55 88 0.0 2.0 0.00 0.07 0.07 53 1021.2
20260503183404 55 39 0.0 2.0 0.00 0.07 0.07 55 1021.1
20260503182905 55 45 1.0 2.0 0.00 0.07 0.07 52 1021.1
20260503182406 55 77 0.0 1.0 0.00 0.07 0.07 52 1021.1
20260503181904 56 55 0.0 3.0 0.00 0.07 0.07 51 1020.9
20260503181405 56 34 0.0 5.0 0.00 0.07 0.07 50 1020.8
20260503180904 56 63 2.0 5.0 0.00 0.07 0.07 49 1020.7
20260503180404 56 46 2.0 6.0 0.00 0.07 0.07 49 1020.6
20260503175904 56 36 2.0 7.0 0.00 0.07 0.07 49 1020.6
20260503175405 57 40 2.0 8.0 0.00 0.07 0.07 49 1020.6
20260503174906 57 25 3.0 8.0 0.00 0.07 0.07 48 1020.6
20260503174404 57 41 3.0 7.0 0.00 0.07 0.07 48 1020.5
20260503172903 58 36 2.0 5.0 0.00 0.07 0.07 48 1020.4
20260503171904 58 43 3.0 5.0 0.00 0.07 0.07 46 1020.3
20260503171405 58 42 1.0 7.0 0.00 0.07 0.07 47 1020.3
20260503170904 59 38 2.0 7.0 0.00 0.07 0.07 46 1020.2
20260503170404 59 46 2.0 6.0 0.00 0.07 0.07 47 1020.1
20260503150905 64 313 1.0 7.0 0.00 0.07 0.07 39 1020.0
20260503131410 63 238 3.0 10.0 0.00 0.07 0.07 43 1020.6
20260503130904 63 253 3.0 10.0 0.00 0.07 0.07 44 1020.6
20260503130404 64 213 2.0 7.0 0.00 0.07 0.07 44 1020.6
20260503110403 61 228 1.0 7.0 0.00 0.07 0.07 50 1021.3
20260503090405 55 265 1.0 7.0 0.00 0.07 0.07 63 1022.1
20260503081405 59 20 1.0 3.0 0.00 0.07 0.07 52 1022.0
20260503080905 59 8 1.0 3.0 0.00 0.07 0.07 52 1022.0
20260503080404 59 353 1.0 3.0 0.00 0.07 0.07 51 1021.9
20260503072907 53 261 0.0 3.0 0.00 0.07 0.07 62 1022.0
20260503072406 53 280 1.0 6.0 0.00 0.07 0.07 62 1022.0
20260503071904 53 15 0.0 6.0 0.00 0.07 0.07 64 1022.0
20260503071403 53 23 3.0 7.0 0.00 0.07 0.07 62 1022.0
20260503070905 53 16 2.0 7.0 0.00 0.07 0.07 61 1022.0
20260503070404 52 20 2.0 6.0 0.00 0.07 0.07 61 1021.9
20260503054906 49 241 0.0 2.0 0.00 0.07 0.07 84 1021.5
20260503054404 48 233 0.0 3.0 0.00 0.07 0.07 84 1021.6
20260503053906 48 233 1.0 3.0 0.00 0.07 0.07 85 1021.6
20260503053403 48 256 1.0 3.0 0.00 0.07 0.07 85 1021.6
20260503052905 48 224 0.0 2.0 0.00 0.07 0.07 85 1021.6
20260503051904 48 325 0.0 3.0 0.01 0.07 0.07 85 1021.5
20260503051404 48 305 0.0 3.0 0.03 0.07 0.07 85 1021.4
20260503050905 48 36 0.0 1.0 0.04 0.07 0.07 85 1021.2
20260503045905 48 36 0.0 1.0 0.04 0.07 0.07 85 1021.2
20260503045403 48 36 0.0 1.0 0.04 0.07 0.07 84 1021.1
20260503044404 48 29 0.0 1.0 0.04 0.07 0.07 84 1021.0
20260503043905 48 32 0.0 1.0 0.04 0.07 0.07 84 1021.0
20260503043405 48 6 0.0 1.0 0.04 0.07 0.07 83 1020.9
20260503042905 49 5 0.0 1.0 0.04 0.07 0.07 81 1020.9
20260503042404 49 30 0.0 2.0 0.04 0.07 0.07 81 1021.0
20260503041904 49 30 0.0 3.0 0.03 0.06 0.06 79 1020.9
20260503041403 49 345 1.0 3.0 0.01 0.04 0.04 78 1020.8
20260503040903 48 7 0.0 2.0 0.00 0.03 0.03 81 1020.8
20260503035906 48 25 0.0 2.0 0.00 0.03 0.03 80 1020.7
20260503035405 47 29 1.0 2.0 0.00 0.03 0.03 78 1020.7
20260503034903 47 354 0.0 1.0 0.00 0.03 0.03 78 1020.5
20260503034403 48 294 0.0 6.0 0.00 0.03 0.03 77 1020.4
20260503033904 48 24 1.0 6.0 0.00 0.03 0.03 76 1020.3
20260503033405 48 50 2.0 6.0 0.00 0.03 0.03 75 1020.3
20260503032904 48 31 2.0 5.0 0.00 0.03 0.03 75 1020.3
20260503032404 48 32 1.0 3.0 0.00 0.03 0.03 75 1020.2
20260503031905 48 39 1.0 6.0 0.00 0.03 0.03 75 1020.2
20260503031403 48 42 1.0 10.0 0.00 0.03 0.03 75 1020.2
20260503030403 47 45 4.0 7.0 0.00 0.03 0.03 77 1020.3
20260503025904 47 34 2.0 5.0 0.00 0.03 0.03 78 1020.2
20260503024405 47 47 1.0 6.0 0.00 0.03 0.03 77 1020.6
20260503023904 47 25 2.0 5.0 0.00 0.03 0.03 77 1020.6
20260503023405 47 39 0.0 3.0 0.00 0.03 0.03 78 1020.6
20260503022904 46 44 1.0 3.0 0.00 0.03 0.03 79 1020.6
20260503022404 46 24 1.0 3.0 0.00 0.03 0.03 81 1020.6
20260503021904 45 37 2.0 3.0 0.00 0.03 0.03 82 1020.5
20260503020905 45 353 0.0 1.0 0.00 0.03 0.03 83 1020.4
20260503020404 45 17 1.0 1.0 0.00 0.03 0.03 82 1020.3
20260503014904 46 65 0.0 1.0 0.00 0.03 0.03 81 1020.3
20260503014405 46 65 0.0 1.0 0.00 0.03 0.03 80 1020.2
20260503013904 46 65 0.0 1.0 0.00 0.03 0.03 80 1020.3
20260503013404 47 65 0.0 1.0 0.00 0.03 0.03 79 1020.3
20260503012904 47 66 1.0 1.0 0.00 0.03 0.03 79 1020.4
20260503012405 46 72 0.0 3.0 0.00 0.03 0.03 80 1020.5
20260503011904 46 27 0.0 3.0 0.00 0.03 0.03 80 1020.5
20260503010906 46 41 2.0 3.0 0.00 0.03 0.03 81 1020.4
20260503005906 46 355 0.0 3.0 0.00 0.03 0.03 81 1020.5
20260503005405 46 23 1.0 3.0 0.01 0.03 0.03 81 1020.4
20260503004403 47 13 1.0 2.0 0.01 0.03 0.03 82 1020.5
20260503003903 47 49 0.0 2.0 0.01 0.03 0.03 82 1020.5